Location: Joplin
(37.0842°N, 94.5131°W)
Time: 01:15:57
(UTC-05:00)

N. Korean satellite - Visible Passes

Search period start: 18 September 2021 00:00
Search period end: 28 September 2021 00:00
Orbit: 448 x 499 km, 97.3° (Epoch: 17 September)

Date Brightness Start Highest point End Pass type
(mag) Time Alt. Az. Time Alt. Az. Time Alt. Az.
18 Sep 6.6 06:32:45 10° NNE 06:36:15 85° E 06:39:48 10° S visible
19 Sep 8.5 06:05:18 10° NNE 06:08:30 32° E 06:11:43 10° SSE visible
20 Sep 9.8 05:38:40 10° ENE 05:40:38 14° E 05:42:38 10° SE visible
22 Sep 7.8 06:15:05 10° NNE 06:18:30 45° E 06:21:58 10° S visible
23 Sep 9.5 05:48:02 10° NE 05:50:41 19° E 05:53:19 10° SE visible
25 Sep 7.0 06:24:54 10° NNE 06:28:27 65° E 06:32:02 10° S visible
26 Sep 9.0 05:57:34 10° NE 06:00:38 26° E 06:03:43 10° SSE visible
27 Sep 10.0 05:31:24 10° ENE 05:32:43 12° E 05:34:01 10° ESE visible
